Home   Weather   Haugesund   Past weeks

Flag for Norway Past Weather in Haugesund, Norway — Yesterday and Last 2 Weeks

Now
57 °F

Drizzle. Broken clouds.


Feels Like: 52 °F
Forecast: 56 / 61 °F
Wind: 26 mph from West

Location: Karmoy

Current Time: Aug 20, 2017 at 12:11:03 pm

Latest Report: Aug 20, 2017 at 11:20 am


Visibility: N/A

Pressure: 29.71 "Hg

Humidity: 88%

Dew Point: 54 °F

Location of HaugesundLocation

Past Weather in Haugesund — Graph

°F

Haugesund Temperature Yesterday

Maximum temperature yesterday: 61 °F (at 11:50 am)
Minimum temperature yesterday: 54 °F (at 12:50 am)
Average temperature yesterday: 57 °F

High & Low Weather Summary for the Past Weeks

 TemperatureHumidityPressure
High66 °F (Aug 18, 1:50 pm)100% (Aug 5, 12:20 pm)30.15 "Hg (Aug 5, 12:20 pm)
Low50 °F (Aug 7, 3:50 am)59% (Aug 13, 1:50 pm)29.47 "Hg (Aug 19, 8:20 am)
Average58 °F81%29.86 "Hg
* Reported Aug 5 10:20 am — Aug 20 10:50 am, Haugesund. Weather by CustomWeather, © 2017

Note: Actual official high and low records may vary slightly from our data, if they occured in-between our weather recording intervals... More about our weather records

Advertising

Haugesund Weather History for the Previous 24 Hours

Scroll right to see more
 ConditionsComfort  
Time TempWeatherWind HumidityBarometerVisibility
10:50 am
Sun, Aug 20
57 °FScattered showers. Broken clouds.28 mph88%29.68 "HgN/A
10:20 am57 °FLight rain. Broken clouds.30 mph88%29.68 "HgN/A
9:50 am55 °FLight rain. Broken clouds.26 mph88%29.68 "HgN/A
9:20 am55 °FRain. Broken clouds.23 mph88%29.68 "Hg4 mi
8:50 am57 °FScattered showers. Broken clouds.17 mph82%29.65 "HgN/A
8:20 am57 °FScattered clouds.21 mph77%29.65 "HgN/A
7:50 am57 °FPartly sunny.22 mph77%29.65 "HgN/A
7:20 am57 °FBroken clouds.18 mph77%29.65 "HgN/A
6:50 am57 °FBroken clouds.22 mph77%29.62 "HgN/A
6:20 am57 °FPartly sunny.21 mph77%29.62 "HgN/A
5:50 am57 °FOvercast.18 mph77%29.62 "HgN/A
5:20 am57 °FPassing clouds.21 mph82%29.62 "HgN/A
4:50 am57 °FPassing clouds.16 mph77%29.62 "HgN/A
4:20 am55 °FRain. Overcast.18 mph88%29.59 "Hg6 mi
3:50 am57 °FPassing clouds.18 mph88%29.59 "HgN/A
3:20 am55 °FPartly cloudy.23 mph94%29.59 "HgN/A
2:50 am57 °FOvercast.22 mph77%29.59 "HgN/A
1:50 am57 °FPassing clouds.17 mph82%29.59 "HgN/A
1:20 am57 °FOvercast.16 mph82%29.59 "HgN/A
12:50 am57 °FOvercast.18 mph88%29.59 "HgN/A
12:20 am57 °FPassing clouds.20 mph88%29.59 "HgN/A
11:50 pm
Sat, Aug 19
57 °FPartly cloudy.20 mph88%29.59 "HgN/A
11:20 pm57 °FPartly cloudy.21 mph88%29.59 "HgN/A
10:50 pm55 °FLight rain. Partly cloudy.17 mph94%29.59 "Hg6 mi
10:20 pm57 °FLots of rain. Partly cloudy.22 mph88%29.59 "Hg2 mi
9:50 pm57 °FLight rain. Passing clouds.18 mph88%29.59 "Hg6 mi
9:20 pm57 °FLots of rain. Passing clouds.24 mph82%29.59 "Hg6 mi
8:50 pm59 °FScattered showers. Partly sunny.22 mph77%29.59 "HgN/A
8:20 pm59 °FScattered showers. Partly sunny.23 mph77%29.59 "HgN/A
7:50 pm59 °FDrizzle. Broken clouds.23 mph77%29.59 "HgN/A
7:20 pm59 °FBroken clouds.25 mph77%29.59 "HgN/A
6:50 pm61 °FBroken clouds.25 mph72%29.59 "HgN/A
6:20 pm61 °FPartly sunny.24 mph72%29.59 "HgN/A
5:50 pm61 °FPartly sunny.25 mph72%29.56 "HgN/A
4:50 pm61 °FScattered clouds.24 mph72%29.56 "HgN/A
4:20 pm61 °FScattered clouds.21 mph72%29.56 "HgN/A
3:50 pm61 °FScattered clouds.22 mph77%29.56 "HgN/A
3:20 pm59 °FScattered showers. Broken clouds.26 mph82%29.56 "HgN/A
2:50 pm61 °FScattered showers. Partly sunny.23 mph77%29.53 "HgN/A
2:20 pm59 °FDrizzle. Partly sunny.21 mph82%29.53 "HgN/A
1:50 pm59 °FDrizzle. Partly sunny.21 mph82%29.50 "HgN/A
1:20 pm61 °FBroken clouds.21 mph77%29.50 "HgN/A
12:50 pm59 °FScattered showers. Broken clouds.20 mph88%29.50 "HgN/A
12:20 pm59 °FSprinkles. Broken clouds.22 mph82%29.50 "HgN/A
Weather by CustomWeather, © 2017

See weather overviewHow to use our weather pages